FW4701 Weather Reports


Display with metric or nautical units.
time (UTC)temp
F
wind
direction
speed
MPH
gust
MPH
rain 1hr
in
rain 24hr
in
rain mn
in
humidity
%
barometer
mb
20260831181553 98 122 3.0 12.0 0.00 0.00 0.00 23 1015.5
20260831181535 90 178 6.0 16.0 0.00 0.01 0.01 57 1015.9
20260831181007 90 223 6.0 12.0 0.00 0.01 0.01 59 1016.0
20260831180510 90 209 5.0 14.0 0.00 0.01 0.01 58 1016.3
20260831180052 96 111 9.0 17.0 0.00 0.00 0.00 25 1015.7
20260831180024 90 267 4.0 14.0 0.00 0.01 0.01 58 1016.4
20260831175511 89 199 3.0 15.0 0.00 0.01 0.01 58 1016.5
20260831175012 89 200 4.0 15.0 0.00 0.01 0.01 56 1016.5
20260831174545 97 156 4.0 11.0 0.00 0.00 0.00 26 1016.2
20260831174543 89 261 5.0 11.0 0.00 0.01 0.01 58 1016.5
20260831174017 89 190 4.0 14.0 0.00 0.01 0.01 60 1016.7
20260831173514 88 228 5.0 14.0 0.00 0.01 0.01 60 1016.7
20260831173042 100 150 0.0 4.0 0.00 0.00 0.00 25 1016.5
20260831173029 88 227 4.0 12.0 0.00 0.01 0.01 60 1016.7
20260831172516 88 173 6.0 12.0 0.00 0.01 0.01 61 1016.7
20260831172017 88 215 4.0 10.0 0.00 0.01 0.01 61 1016.8
20260831171541 88 218 4.0 10.0 0.00 0.01 0.01 59 1017.0
20260831171535 98 219 0.0 6.0 0.00 0.00 0.00 28 1016.6
20260831171018 88 190 2.0 10.0 0.00 0.01 0.01 61 1017.1
20260831170520 88 200 4.0 10.0 0.00 0.01 0.01 60 1017.1
20260831170045 88 267 6.0 10.0 0.00 0.01 0.01 59 1017.2
20260831170037 97 164 2.0 13.0 0.00 0.00 0.00 27 1016.9
20260831165513 87 166 4.0 9.0 0.00 0.01 0.01 61 1017.3
20260831165014 87 205 3.0 8.0 0.00 0.01 0.01 61 1017.3
20260831164532 86 189 3.0 8.0 0.00 0.01 0.01 61 1017.4
20260831164013 86 174 2.0 8.0 0.00 0.01 0.01 63 1017.4
20260831163514 85 145 2.0 6.0 0.00 0.01 0.01 62 1017.4
20260831163031 95 114 1.0 9.0 0.00 0.00 0.00 31 1016.7
20260831162515 85 269 4.0 10.0 0.00 0.01 0.01 62 1017.4
20260831162016 85 171 3.0 12.0 0.00 0.01 0.01 62 1017.4
20260831161531 85 163 5.0 12.0 0.00 0.01 0.01 63 1017.5
20260831161527 94 120 1.0 11.0 0.00 0.00 0.00 32 1016.8
20260831161015 84 182 4.0 9.0 0.00 0.01 0.01 65 1017.5
20260831160518 84 259 3.0 10.0 0.00 0.01 0.01 64 1017.5
20260831160036 84 275 1.0 11.0 0.00 0.01 0.01 65 1017.5
20260831160023 96 113 0.0 5.0 0.00 0.00 0.00 33 1016.7
20260831155518 83 230 2.0 11.0 0.00 0.01 0.01 68 1017.4
20260831155014 83 185 3.0 8.0 0.00 0.01 0.01 67 1017.5
20260831154556 83 211 3.0 11.0 0.00 0.01 0.01 67 1017.5
20260831154517 95 155 0.0 2.0 0.00 0.00 0.00 33 1016.7
20260831154012 82 192 4.0 11.0 0.00 0.01 0.01 67 1017.4
20260831153510 81 183 3.0 8.0 0.00 0.01 0.01 70 1017.4
20260831153015 93 223 0.0 2.0 0.00 0.00 0.00 37 1016.6
20260831153008 81 198 2.0 8.0 0.00 0.01 0.01 69 1017.4
20260831152504 80 242 2.0 8.0 0.00 0.01 0.01 70 1017.4
20260831152008 80 181 2.0 8.0 0.00 0.01 0.01 71 1017.4
20260831151510 91 205 0.0 3.0 0.00 0.00 0.00 40 1016.6
20260831151007 79 84 1.0 8.0 0.00 0.01 0.01 72 1017.4
20260831150504 79 132 4.0 8.0 0.00 0.01 0.01 72 1017.4
20260831150010 79 141 0.0 5.0 0.00 0.01 0.01 72 1017.3
20260831150002 89 221 0.0 4.0 0.00 0.00 0.00 44 1016.6
20260831145507 78 269 1.0 5.0 0.00 0.01 0.01 75 1017.2
20260831145009 78 192 2.0 5.0 0.00 0.01 0.01 75 1017.4
20260831144558 89 224 0.0 2.0 0.00 0.00 0.00 46 1016.4
20260831144526 77 178 2.0 6.0 0.00 0.01 0.01 75 1017.4
20260831144011 77 185 3.0 7.0 0.00 0.01 0.01 75 1017.4
20260831143511 76 132 1.0 7.0 0.00 0.01 0.01 75 1017.4
20260831143111 87 221 0.0 2.0 0.00 0.00 0.00 49 1016.5
20260831143024 76 160 4.0 7.0 0.00 0.01 0.01 75 1017.4
20260831142515 76 182 1.0 6.0 0.00 0.02 0.01 76 1017.2
20260831142004 76 200 2.0 5.0 0.00 0.02 0.01 76 1017.2
20260831141601 87 221 0.0 3.0 0.00 0.00 0.00 48 1016.7
20260831141511 76 192 2.0 6.0 0.00 0.02 0.01 76 1017.2
20260831141003 75 159 1.0 6.0 0.00 0.02 0.01 77 1017.1
20260831140506 75 198 2.0 7.0 0.00 0.02 0.01 77 1017.1
20260831140051 88 216 0.0 2.0 0.00 0.00 0.00 48 1016.7
20260831140022 75 134 1.0 7.0 0.00 0.02 0.01 76 1017.1
20260831135504 75 217 2.0 8.0 0.00 0.02 0.01 76 1017.1
20260831135007 75 169 2.0 8.0 0.00 0.02 0.01 77 1017.1
20260831134546 86 149 0.0 0.0 0.00 0.00 0.00 51 1016.5
20260831134516 75 185 2.0 6.0 0.00 0.02 0.01 77 1017.0
20260831134009 75 173 2.0 7.0 0.00 0.02 0.01 79 1017.1
20260831133518 74 177 2.0 7.0 0.00 0.02 0.01 79 1017.2
20260831133039 82 151 0.0 1.0 0.00 0.00 0.00 55 1016.4
20260831133026 73 207 4.0 7.0 0.00 0.02 0.01 81 1017.1
20260831132516 73 229 3.0 7.0 0.00 0.02 0.01 81 1016.9
20260831132014 73 191 2.0 9.0 0.00 0.02 0.01 81 1016.8
20260831131537 80 103 0.0 5.0 0.00 0.00 0.00 56 1016.4
20260831131528 72 202 2.0 9.0 0.00 0.02 0.01 81 1016.8
20260831131006 72 138 2.0 6.0 0.00 0.02 0.01 81 1016.8
20260831130503 72 241 2.0 6.0 0.00 0.02 0.01 82 1016.8
20260831130036 79 107 0.0 1.0 0.00 0.00 0.00 56 1016.1
20260831130009 72 235 2.0 6.0 0.00 0.02 0.01 82 1016.7
20260831125508 72 173 3.0 6.0 0.00 0.02 0.01 82 1016.7
20260831125007 72 173 2.0 6.0 0.00 0.02 0.01 82 1016.7
20260831124527 0 0.0 0.0 0.00 0.00 0.00 1015.6
20260831124512 72 215 3.0 6.0 0.00 0.02 0.01 82 1016.7
20260831124009 72 185 3.0 6.0 0.00 0.02 0.01 82 1016.8
20260831123510 72 211 2.0 9.0 0.00 0.02 0.01 82 1016.7
20260831123024 0 0.0 0.0 0.00 0.00 0.00 1015.5
20260831123018 72 236 2.0 10.0 0.00 0.02 0.01 82 1016.6
20260831122511 72 218 3.0 10.0 0.00 0.02 0.01 82 1016.6
20260831122011 72 175 4.0 6.0 0.00 0.02 0.01 83 1016.6
20260831121526 72 202 2.0 7.0 0.00 0.02 0.01 83 1016.5
20260831121516 0 0.0 0.0 0.00 0.00 0.00 1015.4
20260831121013 72 196 3.0 7.0 0.00 0.02 0.01 82 1016.6
20260831120515 72 196 2.0 7.0 0.00 0.02 0.01 82 1016.6
20260831120031 72 249 1.0 5.0 0.00 0.02 0.01 82 1016.5
20260831120012 0 0.0 0.0 0.00 0.00 0.00 1015.1
20260831115503 72 191 3.0 8.0 0.00 0.02 0.01 82 1016.4
20260831115006 72 225 3.0 8.0 0.00 0.02 0.01 82 1016.3
20260831114513 72 199 2.0 8.0 0.00 0.02 0.01 82 1016.3
20260831114507 0 0.0 0.0 0.00 0.00 0.00 1014.9
20260831114004 72 219 3.0 9.0 0.00 0.02 0.01 82 1016.2
20260831113506 72 183 4.0 9.0 0.00 0.02 0.01 82 1016.3
20260831113101 0 0.0 0.0 0.00 0.00 0.00 1014.8
20260831113015 72 205 3.0 8.0 0.00 0.02 0.01 82 1016.2
20260831112510 72 269 4.0 8.0 0.00 0.02 0.01 82 1016.2
20260831112011 72 215 4.0 10.0 0.00 0.02 0.01 82 1016.2
20260831111557 0 0.0 0.0 0.00 0.00 0.00 1014.7
20260831111530 72 205 4.0 10.0 0.00 0.02 0.01 82 1016.2
20260831111015 72 196 4.0 12.0 0.00 0.02 0.01 82 1016.2
20260831110513 72 186 4.0 12.0 0.00 0.02 0.01 82 1016.2
20260831110059 0 0.0 0.0 0.00 0.00 0.00 1014.6
20260831110027 72 190 3.0 9.0 0.00 0.02 0.01 82 1016.2
20260831105512 72 190 4.0 11.0 0.00 0.02 0.01 82 1016.1
20260831105016 72 202 4.0 11.0 0.00 0.02 0.01 82 1016.1
20260831104545 0 133 0.0 3.0 0.00 0.00 0.00 1014.6
20260831104509 72 185 4.0 10.0 0.00 0.02 0.01 82 1016.1
20260831104005 72 171 4.0 10.0 0.00 0.02 0.01 82 1016.1
20260831103508 72 196 4.0 15.0 0.00 0.02 0.01 81 1016.1
20260831103042 78 136 0.0 4.0 0.00 0.00 0.00 56 1014.7
20260831103035 72 205 4.0 15.0 0.00 0.02 0.01 81 1016.0
20260831102506 72 185 4.0 10.0 0.00 0.02 0.01 82 1016.0
20260831102008 72 222 4.0 8.0 0.00 0.02 0.01 82 1015.9
20260831101544 78 127 0.0 4.0 0.00 0.00 0.00 55 1014.5
20260831101520 72 220 3.0 8.0 0.00 0.02 0.01 82 1015.9
20260831101012 72 213 3.0 10.0 0.00 0.02 0.01 82 1015.8
20260831100514 72 182 4.0 10.0 0.00 0.02 0.01 82 1015.8
20260831100035 72 185 3.0 7.0 0.00 0.02 0.01 82 1015.8
20260831095513 72 194 3.0 9.0 0.00 0.02 0.01 82 1015.8
20260831095016 72 214 4.0 9.0 0.01 0.02 0.01 82 1015.9
20260831094538 79 120 4.0 7.0 0.00 0.00 0.00 54 1014.4
20260831094532 72 182 3.0 7.0 0.01 0.02 0.01 82 1015.9
20260831094016 72 239 3.0 8.0 0.01 0.02 0.01 82 1016.0
20260831093516 72 173 3.0 9.0 0.01 0.02 0.01 81 1016.1
20260831093029 80 127 1.0 8.0 0.00 0.00 0.00 54 1014.4
20260831093011 72 207 3.0 9.0 0.01 0.02 0.01 81 1016.1
20260831092506 72 182 3.0 8.0 0.01 0.02 0.01 81 1016.2
20260831092007 72 192 3.0 9.0 0.01 0.02 0.01 81 1016.3
20260831091536 80 127 4.0 6.0 0.00 0.00 0.00 53 1014.4
20260831091517 73 169 5.0 9.0 0.01 0.02 0.01 81 1016.3
20260831091008 73 164 3.0 9.0 0.01 0.02 0.01 80 1016.3
20260831090515 73 189 3.0 7.0 0.01 0.02 0.01 81 1016.3
20260831090023 73 189 3.0 7.0 0.01 0.02 0.01 81 1016.3
20260831085514 73 211 2.0 8.0 0.01 0.02 0.01 81 1016.3
20260831085018 73 195 4.0 8.0 0.00 0.01 0.00 80 1016.3
20260831084526 73 229 4.0 8.0 0.00 0.01 0.00 80 1016.2
20260831084522 80 114 3.0 5.0 0.00 0.00 0.00 52 1014.2
20260831084015 73 194 2.0 8.0 0.00 0.01 0.00 80 1016.3
20260831083515 73 198 3.0 10.0 0.00 0.01 0.00 80 1016.3
20260831083030 73 188 3.0 10.0 0.00 0.01 0.00 80 1016.3
20260831083018 81 117 2.0 7.0 0.00 0.00 0.00 51 1014.2
20260831082518 73 166 2.0 9.0 0.00 0.01 0.00 80 1016.2
20260831082009 73 217 4.0 9.0 0.00 0.01 0.00 80 1016.3
20260831081514 80 119 4.0 6.0 0.00 0.00 0.00 51 1014.3
20260831081009 73 211 2.0 7.0 0.00 0.01 0.00 80 1016.2
20260831080514 73 199 2.0 5.0 0.00 0.01 0.00 80 1016.1
20260831080040 74 195 1.0 5.0 0.00 0.01 0.00 80 1016.1
20260831080012 80 113 3.0 5.0 0.00 0.00 0.00 50 1014.3
20260831075512 74 205 0.0 5.0 0.00 0.01 0.00 80 1016.1
20260831075012 74 198 0.0 4.0 0.00 0.01 0.00 79 1016.1
20260831074528 74 242 1.0 7.0 0.00 0.01 0.00 78 1016.1
20260831074510 81 128 2.0 5.0 0.00 0.00 0.00 49 1014.2
20260831074013 75 221 3.0 7.0 0.00 0.01 0.00 77 1016.0
20260831073516 75 209 2.0 10.0 0.00 0.01 0.00 77 1016.1
20260831073033 75 204 5.0 10.0 0.00 0.01 0.00 75 1016.1
20260831073008 81 127 1.0 4.0 0.00 0.00 0.00 48 1014.3
20260831072517 75 225 3.0 9.0 0.00 0.01 0.00 76 1016.1
20260831072020 75 223 2.0 9.0 0.00 0.01 0.00 76 1016.1
20260831071531 75 184 2.0 7.0 0.00 0.01 0.00 76 1016.1
20260831071503 81 116 0.0 7.0 0.00 0.00 0.00 47 1014.5
20260831071003 75 186 3.0 8.0 0.00 0.01 0.00 77 1016.1
20260831070508 75 169 3.0 10.0 0.00 0.01 0.00 77 1016.1
20260831070019 75 180 4.0 10.0 0.00 0.01 0.00 77 1016.1
20260831070002 82 124 1.0 6.0 0.00 0.00 0.00 46 1014.5
20260831065512 75 191 3.0 9.0 0.00 0.01 0.00 77 1016.2
20260831065011 75 197 4.0 10.0 0.00 0.01 0.00 77 1016.1
20260831064608 82 114 3.0 5.0 0.00 0.00 0.00 45 1014.5
20260831064523 75 188 4.0 10.0 0.00 0.01 0.00 78 1016.1
20260831064014 75 217 4.0 10.0 0.00 0.01 0.00 78 1016.1
20260831063503 75 157 5.0 10.0 0.00 0.01 0.00 77 1016.0
20260831063056 82 126 0.0 1.0 0.00 0.00 0.00 44 1014.4
20260831063005 75 173 5.0 11.0 0.00 0.01 0.00 77 1016.1
20260831062504 75 190 4.0 11.0 0.00 0.01 0.00 77 1016.0
20260831062006 75 192 2.0 10.0 0.00 0.01 0.00 78 1016.0
20260831061554 82 121 0.0 0.0 0.00 0.00 0.00 44 1014.4
20260831061509 75 204 5.0 10.0 0.00 0.01 0.00 78 1015.9
20260831061006 75 214 5.0 9.0 0.00 0.01 0.00 79 1016.0
20260831060507 74 184 4.0 10.0 0.00 0.01 0.00 80 1016.1
20260831060051 82 120 0.0 2.0 0.00 0.00 0.00 42 1014.5
20260831060013 74 233 4.0 10.0 0.00 0.01 0.00 81 1016.1
20260831055508 74 202 4.0 14.0 0.00 0.01 0.00 81 1016.1
20260831055011 74 199 5.0 14.0 0.00 0.01 0.00 82 1016.1
20260831054558 83 137 0.0 4.0 0.00 0.00 0.00 40 1014.4
20260831054523 74 227 3.0 11.0 0.00 0.01 0.00 83 1016.2
20260831054004 74 184 5.0 11.0 0.00 0.01 0.00 83 1016.3
20260831053503 74 198 4.0 8.0 0.00 0.01 0.00 83 1016.3
20260831053044 82 130 1.0 5.0 0.00 0.00 0.00 40 1014.4
20260831053004 74 157 3.0 7.0 0.00 0.01 0.00 84 1016.3
20260831052504 74 192 2.0 7.0 0.00 0.01 0.00 85 1016.2
20260831052004 74 186 3.0 8.0 0.00 0.01 0.00 85 1016.2
20260831051543 82 107 3.0 5.0 0.00 0.00 0.00 39 1014.3
20260831051511 74 221 2.0 8.0 0.00 0.01 0.00 86 1016.2
20260831051003 74 184 2.0 7.0 0.00 0.01 0.00 88 1016.2
20260831050503 73 209 3.0 6.0 0.00 0.01 0.00 88 1016.2
20260831050036 82 123 2.0 3.0 0.00 0.00 0.00 38 1014.3
20260831050017 73 201 3.0 6.0 0.00 0.01 0.00 89 1016.3
20260831045508 73 204 3.0 4.0 0.00 0.01 0.01 90 1016.5
20260831045007 73 204 2.0 4.0 0.00 0.01 0.01 90 1016.6
20260831044534 82 119 1.0 3.0 0.00 0.00 0.00 37 1014.1
20260831044517 73 202 1.0 3.0 0.00 0.01 0.01 90 1016.8
20260831044009 73 116 0.0 2.0 0.00 0.01 0.01 90 1016.8
20260831043516 73 136 0.0 3.0 0.00 0.01 0.01 90 1016.9
20260831043033 83 119 1.0 4.0 0.00 0.00 0.00 37 1014.1
20260831043003 73 150 0.0 3.0 0.00 0.01 0.01 90 1016.9
20260831042504 74 130 0.0 2.0 0.00 0.01 0.01 90 1016.9
20260831042003 74 103 0.0 2.0 0.00 0.01 0.01 90 1017.0
20260831041548 83 122 2.0 3.0 0.00 0.00 0.00 36 1014.0
20260831041509 74 103 0.0 2.0 0.00 0.01 0.01 90 1017.0
20260831041004 74 99 1.0 3.0 0.00 0.01 0.01 90 1017.1
20260831040504 74 100 1.0 3.0 0.00 0.01 0.01 90 1017.1
20260831040037 84 121 1.0 3.0 0.00 0.00 0.00 35 1013.9
20260831040010 74 101 1.0 3.0 0.00 0.01 0.01 90 1017.1
20260831035503 74 96 1.0 3.0 0.00 0.01 0.01 89 1017.1
20260831035007 74 96 1.0 3.0 0.00 0.01 0.01 89 1017.2
20260831034527 84 121 0.0 2.0 0.00 0.00 0.00 34 1013.6
20260831034514 75 119 0.0 2.0 0.00 0.01 0.01 89 1017.3
20260831034010 75 107 0.0 2.0 0.00 0.01 0.01 88 1017.2
20260831033510 75 107 1.0 2.0 0.00 0.01 0.01 88 1017.1
20260831033126 85 121 0.0 2.0 0.00 0.00 0.00 34 1013.5
20260831033020 75 104 1.0 4.0 0.00 0.01 0.01 88 1017.2
20260831032512 75 98 2.0 4.0 0.00 0.01 0.01 88 1017.2
20260831032012 75 95 0.0 2.0 0.00 0.01 0.01 88 1017.1
20260831031523 85 121 0.0 1.0 0.00 0.00 0.00 32 1013.5
20260831031503 75 95 0.0 2.0 0.00 0.01 0.01 88 1017.1
20260831031003 75 126 0.0 2.0 0.00 0.01 0.01 88 1017.0
20260831030503 75 126 1.0 2.0 0.00 0.01 0.01 88 1017.0
20260831030021 87 121 0.0 2.0 0.00 0.00 0.00 30 1013.4
20260831030007 75 126 0.0 2.0 0.00 0.01 0.01 88 1017.1
20260831025503 75 126 0.0 2.0 0.00 0.01 0.01 88 1017.2
20260831025003 75 126 0.0 2.0 0.00 0.01 0.01 88 1017.2
20260831024518 88 119 2.0 5.0 0.00 0.00 0.00 30 1013.2
20260831024514 76 174 0.0 4.0 0.00 0.01 0.01 88 1017.1
20260831024008 76 174 0.0 4.0 0.00 0.01 0.01 88 1017.1
20260831023509 76 184 0.0 4.0 0.00 0.01 0.01 88 1017.1
20260831023017 76 209 1.0 4.0 0.00 0.01 0.01 88 1017.2
20260831023015 89 107 5.0 8.0 0.00 0.00 0.00 29 1013.0
20260831022511 76 184 1.0 3.0 0.00 0.01 0.01 88 1017.1
20260831022011 76 200 0.0 4.0 0.00 0.01 0.01 88 1017.0
20260831021525 76 203 1.0 6.0 0.00 0.01 0.01 88 1016.9
20260831021512 89 111 5.0 7.0 0.00 0.00 0.00 28 1012.9
20260831021012 75 187 1.0 6.0 0.00 0.01 0.01 88 1017.0
20260831020503 75 200 1.0 6.0 0.00 0.01 0.01 89 1017.0
20260831020011 90 119 4.0 7.0 0.00 0.00 0.00 27 1012.6
20260831020004 75 295 2.0 7.0 0.00 0.01 0.01 89 1016.9
20260831015506 75 202 3.0 7.0 0.00 0.01 0.01 90 1016.9
20260831015003 75 198 1.0 3.0 0.00 0.01 0.01 90 1016.9
20260831014510 91 129 5.0 7.0 0.00 0.00 0.00 26 1012.3
20260831014008 75 190 0.0 3.0 0.00 0.01 0.01 90 1016.9
20260831013507 75 192 0.0 1.0 0.00 0.01 0.01 90 1016.7
20260831013016 76 115 0.0 2.0 0.00 0.01 0.01 89 1016.5
20260831013006 92 110 5.0 9.0 0.00 0.00 0.00 25 1012.2
20260831012508 76 115 0.0 3.0 0.00 0.01 0.01 89 1016.4
20260831012011 76 115 2.0 3.0 0.00 0.01 0.01 89 1016.3
20260831011526 76 100 1.0 3.0 0.00 0.01 0.01 89 1016.5
20260831011505 93 105 6.0 10.0 0.00 0.00 0.00 24 1012.0
20260831011009 76 100 0.0 5.0 0.00 0.01 0.01 88 1016.5
20260831010512 76 59 1.0 7.0 0.00 0.01 0.01 88 1016.3
20260831010033 77 94 3.0 7.0 0.00 0.01 0.01 88 1016.3
20260831010003 94 113 7.0 11.0 0.00 0.00 0.00 24 1012.1
20260831005512 77 95 1.0 3.0 0.00 0.01 0.01 87 1016.6
20260831005004 77 115 0.0 1.0 0.00 0.01 0.01 86 1016.9
20260831004506 77 115 0.0 2.0 0.00 0.01 0.01 86 1016.8
20260831004501 95 120 7.0 10.0 0.00 0.00 0.00 22 1012.0
20260831004006 77 115 0.0 3.0 0.00 0.01 0.01 86 1016.7
20260831003506 77 115 0.0 3.0 0.00 0.01 0.01 85 1016.6
20260831003101 96 127 4.0 10.0 0.00 0.00 0.00 20 1011.9
20260831003012 78 115 1.0 3.0 0.00 0.01 0.01 84 1016.5
20260831002506 78 111 2.0 3.0 0.00 0.01 0.01 84 1016.4
20260831002007 78 119 1.0 3.0 0.00 0.01 0.01 83 1016.5
20260831001557 97 85 4.0 11.0 0.00 0.00 0.00 19 1012.0
20260831001519 78 105 0.0 3.0 0.00 0.01 0.01 83 1016.7
20260831001011 78 105 0.0 3.0 0.00 0.01 0.01 83 1016.7
20260831000510 78 110 1.0 3.0 0.00 0.01 0.01 83 1016.6
20260831000054 98 134 0.0 10.0 0.00 0.00 0.00 18 1011.9
20260831000026 79 105 1.0 3.0 0.00 0.01 0.01 83 1016.7
20260830235513 79 121 0.0 2.0 0.00 0.01 0.01 83 1016.8
20260830235016 79 124 1.0 2.0 0.00 0.01 0.01 82 1017.0
20260830234552 97 126 2.0 14.0 0.00 0.00 0.00 18 1012.0
20260830234540 79 93 0.0 0.0 0.00 0.01 0.01 82 1017.1
20260830234004 79 93 0.0 0.0 0.00 0.01 0.01 81 1017.3
20260830233503 80 93 0.0 2.0 0.00 0.01 0.01 81 1017.3
20260830233049 98 119 6.0 14.0 0.00 0.00 0.00 18 1012.0
20260830233011 80 93 0.0 2.0 0.00 0.01 0.01 81 1017.4
20260830232504 80 93 1.0 2.0 0.00 0.01 0.01 80 1017.4
20260830232011 80 93 0.0 2.0 0.00 0.01 0.01 80 1017.4
20260830231558 98 125 9.0 14.0 0.00 0.00 0.00 18 1012.0
20260830231518 80 93 0.0 2.0 0.00 0.01 0.01 80 1017.5
20260830231012 80 116 0.0 3.0 0.00 0.01 0.01 80 1017.4
20260830230511 80 107 1.0 3.0 0.00 0.01 0.01 79 1017.4
20260830230047 99 124 2.0 13.0 0.00 0.00 0.00 17 1012.0
20260830230025 80 96 1.0 3.0 0.00 0.01 0.01 79 1017.4
20260830225513 80 105 0.0 4.0 0.00 0.01 0.01 80 1017.3
20260830225011 80 360 1.0 4.0 0.00 0.01 0.01 79 1017.1
20260830224550 99 115 5.0 14.0 0.00 0.00 0.00 16 1012.2
20260830224527 80 81 1.0 3.0 0.00 0.01 0.01 79 1017.0
20260830224015 80 90 1.0 6.0 0.00 0.01 0.01 78 1016.9
20260830223514 81 90 2.0 6.0 0.00 0.01 0.01 78 1016.8
20260830223039 99 127 10.0 16.0 0.00 0.00 0.00 17 1012.2
20260830223007 81 93 2.0 3.0 0.00 0.01 0.01 77 1016.6
20260830222502 81 117 0.0 2.0 0.00 0.01 0.01 77 1016.7
20260830222009 81 109 0.0 2.0 0.00 0.01 0.01 76 1016.7
20260830221540 99 85 7.0 19.0 0.00 0.00 0.00 16 1012.1
20260830221516 82 109 0.0 2.0 0.00 0.01 0.01 76 1016.8
20260830221007 82 109 1.0 2.0 0.00 0.01 0.01 76 1017.0
20260830220508 82 139 0.0 1.0 0.00 0.01 0.01 77 1017.0
20260830220033 99 84 4.0 17.0 0.00 0.00 0.00 15 1012.2
20260830220020 82 139 0.0 2.0 0.00 0.01 0.01 76 1017.0
20260830215511 82 157 0.0 2.0 0.00 0.01 0.01 76 1017.2
20260830215014 82 278 0.0 2.0 0.00 0.01 0.01 76 1017.2
20260830214532 99 113 8.0 17.0 0.00 0.00 0.00 17 1012.3
20260830214526 82 292 0.0 2.0 0.00 0.01 0.01 76 1017.1
20260830214014 82 5 0.0 2.0 0.00 0.01 0.01 76 1017.1
20260830213502 82 70 0.0 4.0 0.00 0.01 0.01 75 1017.1
20260830213028 99 118 11.0 16.0 0.00 0.00 0.00 16 1012.5
20260830213003 82 195 1.0 5.0 0.00 0.01 0.01 75 1017.0
20260830212503 81 184 2.0 6.0 0.00 0.01 0.01 75 1016.9
20260830212003 81 197 2.0 6.0 0.00 0.01 0.01 75 1016.8
20260830211526 99 95 5.0 12.0 0.00 0.00 0.00 15 1012.6
20260830211509 81 226 2.0 7.0 0.00 0.01 0.01 75 1016.7
20260830211004 81 150 2.0 7.0 0.00 0.01 0.01 75 1016.7
20260830210503 81 173 1.0 5.0 0.00 0.01 0.01 75 1016.8
20260830210021 99 122 9.0 17.0 0.00 0.00 0.00 16 1012.7
20260830210007 81 237 2.0 7.0 0.00 0.01 0.01 76 1016.9
20260830205507 81 216 2.0 7.0 0.00 0.01 0.01 75 1016.8
20260830205004 81 196 1.0 5.0 0.00 0.01 0.01 76 1016.8
20260830204518 99 106 10.0 18.0 0.00 0.00 0.00 16 1013.0
20260830204510 80 224 1.0 6.0 0.00 0.01 0.01 76 1016.8
20260830204004 80 221 2.0 6.0 0.00 0.01 0.01 75 1016.8
20260830203504 80 204 1.0 9.0 0.00 0.01 0.01 75 1016.8
20260830203014 100 118 3.0 17.0 0.00 0.00 0.00 17 1013.2
20260830203003 80 182 3.0 9.0 0.00 0.01 0.01 75 1017.0
20260830202504 80 183 2.0 7.0 0.00 0.01 0.01 75 1017.0
20260830202004 80 183 1.0 9.0 0.00 0.01 0.01 74 1017.1
20260830201514 101 232 2.0 7.0 0.00 0.00 0.00 16 1013.3
20260830201507 80 330 1.0 9.0 0.00 0.01 0.01 74 1017.1
20260830201005 80 210 4.0 9.0 0.00 0.01 0.01 73 1017.1
20260830200505 80 185 2.0 9.0 0.00 0.01 0.01 73 1017.2
20260830200009 100 174 1.0 13.0 0.00 0.00 0.00 17 1013.6
20260830195503 81 207 4.0 14.0 0.00 0.01 0.01 71 1017.3
20260830195003 81 199 6.0 16.0 0.00 0.01 0.01 71 1017.3
20260830194509 81 237 5.0 16.0 0.00 0.01 0.01 71 1017.2
20260830194505 99 128 3.0 16.0 0.00 0.00 0.00 16 1013.7
20260830194004 81 206 7.0 18.0 0.00 0.01 0.01 71 1017.1
20260830193503 81 263 7.0 18.0 0.00 0.01 0.01 71 1017.1
20260830193009 100 96 9.0 15.0 0.00 0.00 0.00 16 1013.9
20260830193007 81 165 2.0 14.0 0.00 0.01 0.01 74 1017.1
20260830192503 80 283 6.0 14.0 0.00 0.01 0.01 73 1017.0
20260830192002 80 194 4.0 16.0 0.00 0.01 0.01 72 1016.9
20260830191600 101 179 4.0 16.0 0.00 0.00 0.00 16 1014.1
20260830191504 80 193 7.0 17.0 0.00 0.01 0.01 72 1017.0
20260830191003 80 207 7.0 17.0 0.00 0.01 0.01 72 1016.9
20260830190503 80 166 3.0 15.0 0.00 0.01 0.01 74 1016.9
20260830190057 102 172 0.0 4.0 0.00 0.00 0.00 17 1014.3
20260830190010 80 227 5.0 17.0 0.00 0.01 0.01 73 1016.9
20260830185504 80 242 4.0 17.0 0.00 0.01 0.01 73 1017.0
20260830185003 80 175 5.0 14.0 0.00 0.01 0.01 73 1016.8
20260830184551 100 327 0.0 7.0 0.00 0.00 0.00 16 1014.5
20260830184517 80 155 7.0 14.0 0.00 0.01 0.01 73 1016.8
20260830184004 80 156 5.0 19.0 0.00 0.01 0.01 74 1016.8
20260830183503 80 193 7.0 19.0 0.00 0.01 0.01 74 1016.9
20260830183051 99 133 1.0 9.0 0.00 0.00 0.00 20 1014.6
20260830183008 79 204 7.0 16.0 0.00 0.01 0.01 75 1017.0
20260830182505 79 184 6.0 15.0 0.00 0.01 0.01 75 1016.9
20260830182003 78 176 5.0 15.0 0.00 0.01 0.01 76 1017.0